Location: M.A.R.S.Observatory
(35.4031°N, 81.5481°W)
Time: 21:50:08
(UTC-05:00)

Tiangong - Visible Passes

Search period start: 05 December 2021 00:00
Search period end: 15 December 2021 00:00
Orbit: 380 x 384 km, 41.5° (Epoch: 05 December)

Date Brightness Start Highest point End Pass type
(mag) Time Alt. Az. Time Alt. Az. Time Alt. Az.
05 Dec 3.2 18:24:38 10° S 18:26:23 14° SE 18:26:48 14° SE visible
06 Dec 2.2 18:59:20 10° SW 19:01:35 38° SSW 19:01:35 38° SSW visible
07 Dec 2.5 17:59:19 10° SSW 18:02:00 26° SE 18:04:07 14° E visible
07 Dec 4.2 19:35:34 10° W 19:36:17 15° W 19:36:17 15° W visible
08 Dec 0.9 18:34:57 10° WSW 18:38:06 88° NNW 18:38:44 53° ENE visible
09 Dec 3.0 19:11:28 10° W 19:13:17 26° WNW 19:13:17 26° WNW visible
10 Dec 1.5 18:10:39 10° W 18:13:45 53° NNW 18:15:37 21° NE visible
11 Dec 2.4 18:47:19 10° WNW 18:50:03 29° NNW 18:50:03 29° NNW visible
12 Dec 2.0 17:46:23 10° W 17:49:21 36° NNW 17:52:17 10° NE visible
12 Dec 4.0 19:23:52 10° WNW 19:24:26 13° NW 19:24:26 13° NW visible
13 Dec 2.5 18:23:02 10° WNW 18:25:45 26° N 18:26:41 22° NNE visible
14 Dec 2.9 18:59:21 10° NW 19:01:04 23° NNW 19:01:04 23° NNW visible
